Location: Grandview
(34.8900°N, 117.1058°W)
Time: 22:01:04
(UTC-07:00)

Envisat - Pass Details

Date: 13 October 2017
Orbit: 764 x 766 km, 98.2° (Epoch: 15 July)

Event Time Altitude Azimuth Distance (km) Brightness Sun altitude
Exits shadow 21:18:34 19° 326° (NW) 1,780 5.3 -37.9°
Drops below altitude 10° 21:20:02 10° 334° (NNW) 2,308 5.9 -38.2°
Sets 21:22:27 0° 340° (NNW) 3,237 6.7 -38.7°
